DECAYED
Showing default

SICH-2-1, 51030 (Decayed)

Orbit data source: Space-Track

SICH-2-1, 51030 was a payload satellite owned by DKAU (UA) in LEO that was launched on Thu, 13 Jan 2022 UTC via an FALCON 9 launch vehicle from the Air Force Eastern Test Range (AFETR). Payload-class satellites include a variety of spacecraft equipped with specific instruments for various scientific and technological missions. These include communications satellites like Starlink; space stations such as the ISS; scientific satellites like the Hubble; Earth observation satellites from companies like Planet Labs, Umbra, and HawkEye 360; GPS; miniature CubeSats for education and research; and military/defense satellites.

Not visible in the next 10 days
Identifier
51030, 2022-002AY
Orbit
Decayed
Country
Flag of UAUA / UKR
Related business
Manufacturer
Yuzhnoe
Mission
Decayed Civil Imaging
Bus & Motor
MS-2-8, Unknown motor
Mass
170 kg wet, 170 kg dry
Launch date (UTC)
2022-01-13 (5 years ago)
Launch vehicle
FALCON 9
Launch site
Air Force Eastern Test Range (AFETR)
Object type
Payload
Rocket body
Debris
Shape & HBR
Box, 0.5 m
Radar Cross Section
1.500 m², Large (>1 m²)

Expand to show TLE details & history
Last TLE update: 10 months ago

TLE from 10 months ago
0 SICH-2-1
1 51030U 22002AY  25281.66790046  .08599701  24898-5  57277-3 0  9997
2 51030  97.2894   5.9330 0010920 260.7506  99.2559 16.40600581208648
Epoch: 2025-10-08T16:01Z
TLE epoch observation values (Epoch: 2025-10-08T16:01:46.599Z)
Latitude
-0.00005°
Longitude
107.9497°
Altitude
168.618 km
Speed
7.804 km/s
True Right ascension
00h 23m 43s
True Declination
0° 00' 00"
Sunlit
Object was in full shadow at epoch
Visualization orbit readout
Latitude
Unknown
Longitude
Unknown
Altitude
Unknown
Speed
Unknown
Apparent Right ascension
Unknown
Apparent Declination
Unknown
Sunlit
N/A
Visualization observer readout
Local Sidereal Time
16:50:51
Azimuth
Unknown
Elevation
Unknown
Doppler factor
Unknown
Orbital elements
Apogee altitude
168.148 km
Perigee altitude
153.866 km
Semi-major axis
6,539.144 km
Eccentricity
0.00109
Inclination
97.2894°
RAAN
5.933°
Arg. of periapsis
260.7506°
True anomaly
99.37938°
Mean anomaly
99.2559°
Eccentric anomaly
99.31764°
Mean motion
4.10451 °/min
Orbital period
87.71 mins
BSTAR
0.00057277
Loading maneuver chart data...
Computing Atmospheric mass density...

Documentation

Showing up to 5 results
|